User: anonymous
Location: NJAA Observatory
(40.6819°N, 74.8979°W)
Time: 03:32:21
(UTC-04:00)
Language:

Cosmos 1461 - Orbit

View from above orbital plane
View from above orbital plane
View from above satellite
View from above satellite

Ground track
Ground track

The orbit data is extracted from the following two-line orbital elements,

1 14064U 83044A   14259.15541889  .00002958  00000-0  30479-3 0  6207
2 14064 065.0050 147.2837 0093470 080.9638 073.0394 14.88998760573395
Epoch (UTC): 16 September 2014 03:43:48
Eccentricity: 0.0093470
inclination: 65.0050°
perigee height: 536 km
apogee height: 666 km
right ascension of ascending node: 147.2837°
argument of perigee: 80.9638°
revolutions per day: 14.88998760
mean anomaly at epoch: 73.0394°
orbit number at epoch: 57339

The dashed part of the orbit path shows where the satellite is in the earth's shadow,  

DLR